Location: Four Corners
(38.2757°N, 122.4608°W)
Time: 06:38:24
(UTC+00:00)

YAOGAN 1 - Pass Details

Date: 08 December 2019
Orbit: 619 x 621 km, 98.0° (Epoch: 26 January)

Event Time Altitude Azimuth Distance (km) Brightness Sun altitude
Rises 02:21:39 0° 154° (SSE) 2,882 5.9 -17.6°
Reaches altitude 10° 02:23:52 10° 150° (SSE) 1,981 5.0 -18.0°
Maximum altitude 02:28:03 52° 74° (ENE) 774 2.6 -18.8°
Drops below altitude 10° 02:32:16 10° 358° (N) 1,995 5.0 -19.6°
Sets 02:34:30 0° 354° (N) 2,906 5.9 -20.1°
